2025-155V (64895 NORAD) Tracking and Keplerian Element Data

This shows tracking and keplerian element data for the satellite.

Feedback or suggestion? Click here.




ElementValue
Catalog64895
Name2025-155V
Epoch Orbit5341
Epoch Day354.15023738
Epoch Year2025
RAAN317.8454
Inclination97.4361
Eccentricity0.0009943
Argument of Perigee89.6366
Mean Anonmoly270.6012
Mean Motion15.25518073
Decay Rate6.904E-05
L11 64895U 25155V 25354.15023738 .00006904 00000+0 27490-3 0 9991
L22 64895 97.4361 317.8454 0009943 89.6366 270.6012 15.25518073 53417



Live tracking and technical data element details for 2025-155V (NORAD 64895). 2025-155V can be tracked NOW for your location showing map with azimuth and elevation plus other details from your city location.







IsCatalogInMostPopularTable: catalog: 64895, numindb: 6
Update: records affected: 1



GetName: 64895 2025-155V

Hit Count: updated at: Wed, 15 Apr 2026 01:49:08 GMT